• în România
  • Lista ţărilor
  • Pe 7 zile
  • Temperatura apei
  • Hartă satelitară
  • Meteo pe hartă
  • Widget-uri
  • user-avatar
    Intrare

    Meteo pe oră la Rusanovo

    Astăzi, 23 Octombrie, Marţi

    Timp Temperatura Precipitaţii Vânt Presiune Umiditate
    00:00 +5°C° 0.7 mm 3 m/s 743 mmHg 90%
    01:00 +5°C° 0.7 mm 3 m/s 743 mmHg 91%
    02:00 +5°C° 0 mm 3 m/s 742 mmHg 91%
    03:00 +5°C° 0.1 mm 3 m/s 742 mmHg 92%
    04:00 +4°C° 0.1 mm 3 m/s 741 mmHg 93%
    05:00 +5°C° 0.1 mm 2 m/s 741 mmHg 94%
    06:00 +5°C° 0 mm 2 m/s 741 mmHg 94%
    07:00 +4°C° 0 mm 2 m/s 741 mmHg 93%
    08:00 +4°C° 0 mm 2 m/s 740 mmHg 92%
    09:00 +5°C° 0 mm 2 m/s 740 mmHg 88%
    10:00 +5°C° 0 mm 2 m/s 739 mmHg 83%
    11:00 +5°C° 0 mm 3 m/s 739 mmHg 78%
    12:00 +5°C° 0 mm 3 m/s 738 mmHg 75%
    13:00 +7°C° 0 mm 3 m/s 737 mmHg 72%
    14:00 +7°C° 0 mm 3 m/s 736 mmHg 69%
    15:00 +5°C° 0 mm 3 m/s 735 mmHg 71%
    16:00 +5°C° 0 mm 3 m/s 734 mmHg 74%
    17:00 +4°C° 0 mm 3 m/s 733 mmHg 76%
    18:00 +4°C° 0.1 mm 3 m/s 732 mmHg 77%
    19:00 +4°C° 0.1 mm 4 m/s 730 mmHg 78%
    20:00 +4°C° 0.1 mm 4 m/s 729 mmHg 79%
    21:00 +4°C° 0.4 mm 4 m/s 728 mmHg 80%
    22:00 +4°C° 0.4 mm 4 m/s 727 mmHg 81%
    23:00 +4°C° 0.4 mm 4 m/s 726 mmHg 82%

    Mâine, 24 Octombrie, Miercuri

    Timp Temperatura Precipitaţii Vânt Presiune Umiditate
    00:00 +4°C° 0.5 mm 4 m/s 725 mmHg 83%
    01:00 +4°C° 0.5 mm 4 m/s 724 mmHg 84%
    02:00 +4°C° 0.5 mm 4 m/s 723 mmHg 84%
    03:00 +4°C° 0.4 mm 4 m/s 723 mmHg 86%
    04:00 +4°C° 0.4 mm 4 m/s 722 mmHg 87%
    05:00 +4°C° 0.4 mm 3 m/s 721 mmHg 88%
    06:00 +4°C° 0.2 mm 3 m/s 721 mmHg 88%
    07:00 +4°C° 0.2 mm 3 m/s 721 mmHg 89%
    08:00 +5°C° 0.2 mm 2 m/s 721 mmHg 90%
    09:00 +5°C° 0.2 mm 2 m/s 721 mmHg 89%
    10:00 +5°C° 0.2 mm 2 m/s 721 mmHg 88%
    11:00 +7°C° 0.2 mm 1 m/s 721 mmHg 87%
    12:00 +7°C° 0.1 mm 1 m/s 722 mmHg 86%
    13:00 +7°C° 0.1 mm 1 m/s 722 mmHg 85%
    14:00 +7°C° 0.1 mm 1 m/s 722 mmHg 84%
    15:00 +6°C° 0.1 mm 2 m/s 722 mmHg 86%
    16:00 +5°C° 0.1 mm 2 m/s 723 mmHg 89%
    17:00 +5°C° 0.1 mm 2 m/s 723 mmHg 91%
    18:00 +5°C° 0 mm 2 m/s 723 mmHg 91%
    19:00 +4°C° 0 mm 3 m/s 724 mmHg 92%
    20:00 +3°C° 0 mm 3 m/s 724 mmHg 92%
    21:00 +4°C° 0.1 mm 3 m/s 724 mmHg 90%
    22:00 +4°C° 0.1 mm 4 m/s 725 mmHg 89%
    23:00 +4°C° 0.1 mm 4 m/s 725 mmHg 87%

    Poimâine, 25 Octombrie, Joi

    Timp Temperatura Precipitaţii Vânt Presiune Umiditate
    00:00 +3°C° 0.1 mm 5 m/s 725 mmHg 86%
    01:00 +2°C° 0.1 mm 5 m/s 726 mmHg 85%
    02:00 +2°C° 0.1 mm 5 m/s 726 mmHg 84%
    03:00 +2°C° 0 mm 5 m/s 726 mmHg 84%
    04:00 +2°C° 0 mm 5 m/s 727 mmHg 83%
    05:00 +2°C° 0 mm 5 m/s 727 mmHg 82%
    06:00 +1°C° 0 mm 5 m/s 727 mmHg 81%
    07:00 +1°C° 0 mm 5 m/s 728 mmHg 81%
    08:00 +1°C° 0 mm 5 m/s 728 mmHg 81%
    09:00 +1°C° 0 mm 5 m/s 728 mmHg 79%
    10:00 +1°C° 0 mm 5 m/s 728 mmHg 77%
    11:00 +2°C° 0 mm 5 m/s 728 mmHg 76%
    12:00 +2°C° 0.1 mm 5 m/s 728 mmHg 75%
    13:00 +2°C° 0.1 mm 5 m/s 728 mmHg 74%
    14:00 +4°C° 0.1 mm 4 m/s 728 mmHg 72%
    15:00 +3°C° 0 mm 4 m/s 729 mmHg 75%
    16:00 +2°C° 0 mm 3 m/s 729 mmHg 78%
    17:00 +2°C° 0 mm 3 m/s 729 mmHg 81%
    18:00 +1°C° 0 mm 3 m/s 729 mmHg 83%
    19:00 +1°C° 0 mm 3 m/s 729 mmHg 84%
    20:00 +1°C° 0 mm 3 m/s 729 mmHg 86%
    21:00 0°C° 0 mm 3 m/s 729 mmHg 87%
    22:00 +1°C° 0 mm 2 m/s 729 mmHg 89%
    23:00 -1°C° 0 mm 2 m/s 730 mmHg 91%

    26 Octombrie, Vineri

    Timp Temperatura Precipitaţii Vânt Presiune Umiditate
    00:00 -1°C° 0 mm 2 m/s 730 mmHg 92%
    01:00 -1°C° 0 mm 2 m/s 730 mmHg 93%
    02:00 -1°C° 0 mm 2 m/s 730 mmHg 95%
    03:00 -1°C° 0 mm 3 m/s 730 mmHg 94%
    04:00 -1°C° 0 mm 3 m/s 731 mmHg 93%
    05:00 0°C° 0 mm 3 m/s 731 mmHg 93%
    06:00 0°C° 0.1 mm 3 m/s 731 mmHg 91%
    07:00 0°C° 0.1 mm 3 m/s 731 mmHg 90%
    08:00 0°C° 0.1 mm 3 m/s 732 mmHg 89%
    09:00 +1°C° 0 mm 3 m/s 732 mmHg 85%
    10:00 +1°C° 0 mm 4 m/s 732 mmHg 80%
    11:00 +3°C° 0 mm 4 m/s 733 mmHg 76%
    12:00 +3°C° 0 mm 4 m/s 733 mmHg 74%
    13:00 +4°C° 0 mm 4 m/s 733 mmHg 72%
    14:00 +4°C° 0 mm 4 m/s 733 mmHg 70%
    15:00 +4°C° 0.1 mm 4 m/s 734 mmHg 73%
    16:00 +3°C° 0.1 mm 3 m/s 734 mmHg 76%
    17:00 +3°C° 0.1 mm 3 m/s 735 mmHg 79%
    18:00 +2°C° 0 mm 3 m/s 735 mmHg 81%
    19:00 +1°C° 0 mm 3 m/s 735 mmHg 84%
    20:00 +1°C° 0 mm 3 m/s 735 mmHg 86%
    21:00 +1°C° 0 mm 3 m/s 735 mmHg 88%
    22:00 0°C° 0 mm 3 m/s 735 mmHg 90%
    23:00 0°C° 0 mm 3 m/s 736 mmHg 91%

    27 Octombrie, Sâmbătă

    Timp Temperatura Precipitaţii Vânt Presiune Umiditate
    00:00 0°C° 0 mm 3 m/s 735 mmHg 91%
    01:00 0°C° 0 mm 3 m/s 735 mmHg 91%
    02:00 0°C° 0 mm 3 m/s 735 mmHg 91%
    03:00 +1°C° 0.4 mm 3 m/s 734 mmHg 90%
    04:00 0°C° 0.4 mm 4 m/s 733 mmHg 88%
    05:00 +1°C° 0.4 mm 4 m/s 732 mmHg 87%
    06:00 +1°C° 1 mm 5 m/s 731 mmHg 87%
    07:00 +2°C° 1 mm 5 m/s 730 mmHg 87%
    08:00 +3°C° 1 mm 5 m/s 729 mmHg 88%
    09:00 +3°C° 0.8 mm 6 m/s 729 mmHg 85%
    10:00 +4°C° 0.8 mm 6 m/s 729 mmHg 83%
    11:00 +5°C° 0.8 mm 6 m/s 728 mmHg 80%
    12:00 +5°C° 0.3 mm 6 m/s 728 mmHg 78%
    13:00 +5°C° 0.3 mm 6 m/s 729 mmHg 77%
    14:00 +5°C° 0.3 mm 6 m/s 729 mmHg 75%
    15:00 +5°C° 0.1 mm 5 m/s 729 mmHg 75%
    16:00 +3°C° 0.1 mm 5 m/s 729 mmHg 76%
    17:00 +4°C° 0.1 mm 4 m/s 730 mmHg 76%
    18:00 +4°C° 0.4 mm 4 m/s 730 mmHg 78%
    19:00 +4°C° 0.4 mm 4 m/s 730 mmHg 80%
    20:00 +4°C° 0.4 mm 3 m/s 730 mmHg 82%
    21:00 +4°C° 0.1 mm 4 m/s 731 mmHg 84%
    22:00 +3°C° 0.1 mm 4 m/s 732 mmHg 86%
    23:00 +3°C° 0.1 mm 4 m/s 733 mmHg 87%

    28 Octombrie, Duminică

    Timp Temperatura Precipitaţii Vânt Presiune Umiditate
    00:00 +2°C° 0.1 mm 5 m/s 734 mmHg 86%
    01:00 +2°C° 0.1 mm 5 m/s 736 mmHg 85%
    02:00 +2°C° 0.1 mm 5 m/s 737 mmHg 83%
    03:00 +2°C° 0.1 mm 5 m/s 738 mmHg 83%
    04:00 +1°C° 0.1 mm 4 m/s 739 mmHg 83%
    05:00 +1°C° 0.1 mm 4 m/s 740 mmHg 83%
    06:00 +1°C° 0 mm 4 m/s 741 mmHg 83%
    07:00 +1°C° 0 mm 4 m/s 742 mmHg 84%
    08:00 +2°C° 0 mm 3 m/s 743 mmHg 84%
    09:00 +2°C° 0 mm 3 m/s 744 mmHg 81%
    10:00 +2°C° 0 mm 3 m/s 745 mmHg 79%
    11:00 +3°C° 0 mm 3 m/s 746 mmHg 76%
    12:00 +3°C° 0 mm 3 m/s 746 mmHg 73%
    13:00 +3°C° 0 mm 3 m/s 747 mmHg 70%
    14:00 +4°C° 0 mm 3 m/s 747 mmHg 67%
    15:00 +4°C° 0 mm 2 m/s 748 mmHg 72%
    16:00 +3°C° 0 mm 2 m/s 748 mmHg 77%
    17:00 +3°C° 0 mm 1 m/s 748 mmHg 82%
    18:00 +3°C° 0 mm 1 m/s 749 mmHg 83%
    19:00 +3°C° 0 mm 1 m/s 749 mmHg 84%
    20:00 +2°C° 0 mm 1 m/s 750 mmHg 85%
    21:00 +2°C° 0 mm 1 m/s 750 mmHg 86%
    22:00 +2°C° 0 mm 1 m/s 750 mmHg 87%
    23:00 +2°C° 0 mm 1 m/s 751 mmHg 87%

    29 Octombrie, Luni

    Timp Temperatura Precipitaţii Vânt Presiune Umiditate
    00:00 +2°C° 0 mm 1 m/s 751 mmHg 88%
    01:00 +1°C° 0 mm 0 m/s 751 mmHg 88%
    02:00 +1°C° 0 mm 0 m/s 751 mmHg 89%
    03:00 +1°C° 0 mm 0 m/s 751 mmHg 89%
    04:00 +2°C° 0 mm 1 m/s 751 mmHg 89%
    05:00 +2°C° 0 mm 1 m/s 751 mmHg 89%
    06:00 +2°C° 0 mm 1 m/s 751 mmHg 88%
    07:00 +2°C° 0 mm 1 m/s 751 mmHg 87%
    08:00 +1°C° 0 mm 2 m/s 751 mmHg 86%
    09:00 +2°C° 0.5 mm 2 m/s 751 mmHg 86%
    10:00 +2°C° 0.5 mm 2 m/s 751 mmHg 85%
    11:00 +2°C° 0.5 mm 2 m/s 751 mmHg 85%
    12:00 +1°C° 0.4 mm 3 m/s 750 mmHg 85%
    13:00 +1°C° 0.4 mm 3 m/s 750 mmHg 85%
    14:00 0°C° 0.4 mm 4 m/s 750 mmHg 86%
    15:00 0°C° 0.7 mm 4 m/s 750 mmHg 86%
    16:00 0°C° 0.7 mm 4 m/s 749 mmHg 87%
    17:00 0°C° 0.7 mm 5 m/s 749 mmHg 87%
    18:00 0°C° 1.1 mm 5 m/s 749 mmHg 88%
    19:00 0°C° 1.1 mm 5 m/s 748 mmHg 89%
    20:00 0°C° 1.1 mm 4 m/s 748 mmHg 89%
    21:00 0°C° 1 mm 5 m/s 747 mmHg 90%
    22:00 0°C° 1 mm 5 m/s 747 mmHg 91%
    23:00 0°C° 1 mm 5 m/s 747 mmHg 91%
    Arată mai mult